GW1200 Weather Reports


Display with metric or nautical units.
time (UTC)temp
F
wind
direction
speed
MPH
gust
MPH
rain 1hr
in
rain 24hr
in
rain mn
in
humidity
%
barometer
mb
20260509160334 73 16 4.0 6.0 0.00 0.00 0.00 79 4248.2
20260509155331 73 240 1.0 2.0 0.00 0.00 0.00 78 4248.3
20260509154330 73 321 1.0 1.0 0.00 0.00 0.00 78 4248.2
20260509153330 73 343 1.0 1.0 0.00 0.00 0.00 81 4248.0
20260509152328 72 234 1.0 2.0 0.00 0.00 0.00 81 4247.9
20260509151328 70 153 0.0 0.0 0.00 0.00 0.00 85 4247.9
20260509150324 69 253 4.0 5.0 0.00 0.00 0.00 85 4247.8
20260509145321 68 236 3.0 3.0 0.00 0.00 0.00 87 4248.0
20260509144320 66 312 1.0 1.0 0.00 0.00 0.00 91 4248.0
20260509143315 67 265 1.0 1.0 0.00 0.00 0.00 91 4248.3
20260509142313 66 243 6.0 7.0 0.00 0.00 0.00 90 4248.1
20260509141312 65 15 1.0 1.0 0.00 0.00 0.00 94 4248.1
20260509140311 64 34 1.0 2.0 0.00 0.00 0.00 94 4248.2
20260509135306 63 294 1.0 1.0 0.00 0.00 0.00 96 4248.1
20260509134306 62 267 1.0 1.0 0.00 0.00 0.00 97 4247.9
20260509133305 62 287 1.0 1.0 0.00 0.00 0.00 98 4247.8
20260509132306 62 268 2.0 2.0 0.00 0.00 0.00 98 4247.9
20260509131301 62 257 2.0 2.0 0.00 0.00 0.00 99 4248.0
20260509130259 62 244 1.0 2.0 0.00 0.00 0.00 99 4247.5
20260509125258 61 22 0.0 1.0 0.00 0.00 0.00 99 4247.7
20260509124257 61 46 1.0 1.0 0.00 0.00 0.00 99 4247.6
20260509123252 60 4 0.0 1.0 0.00 0.00 0.00 99 4247.8
20260509122251 60 236 1.0 1.0 0.00 0.00 0.00 99 4247.8
20260509121250 59 250 2.0 2.0 0.00 0.00 0.00 99 4247.9
20260509120246 59 266 0.0 1.0 0.00 0.00 0.00 99 4247.8
20260509115246 58 300 0.0 1.0 0.00 0.00 0.00 99 4247.8
20260509114243 58 257 1.0 1.0 0.00 0.00 0.00 99 4247.6
20260509113238 58 300 0.0 0.0 0.00 0.00 0.00 99 4247.7
20260509112238 57 284 0.0 1.0 0.00 0.00 0.00 99 4247.5
20260509111238 57 312 0.0 0.0 0.00 0.00 0.00 99 4247.4
20260509110237 56 301 0.0 0.0 0.00 0.00 0.00 99 4247.2
20260509105233 55 310 0.0 0.0 0.00 0.00 0.00 99 4246.9
20260509104232 55 264 1.0 1.0 0.00 0.00 0.00 99 4246.8
20260509103227 56 256 0.0 1.0 0.00 0.00 0.00 99 4246.5
20260509102222 56 256 0.0 0.0 0.00 0.00 0.00 99 4246.6
20260509101221 56 257 0.0 1.0 0.00 0.00 0.00 99 4246.7
20260509100221 56 260 0.0 0.0 0.00 0.00 0.00 99 4246.5
20260509095221 56 257 1.0 1.0 0.00 0.00 0.00 99 4246.8
20260509094221 56 254 0.0 0.0 0.00 0.00 0.00 99 4246.6
20260509093216 56 260 0.0 0.0 0.00 0.00 0.00 99 4246.5
20260509092212 56 250 1.0 1.0 0.00 0.00 0.00 99 4246.4
20260509091211 56 276 0.0 0.0 0.00 0.00 0.00 99 4246.6
20260509090206 56 276 0.0 1.0 0.00 0.00 0.00 99 4246.8
20260509085206 56 277 0.0 0.0 0.00 0.00 0.00 99 4246.9
20260509084206 57 274 0.0 1.0 0.00 0.00 0.00 98 4247.1
20260509083206 57 266 0.0 1.0 0.00 0.00 0.00 98 4247.2
20260509082205 57 245 2.0 2.0 0.00 0.00 0.00 99 4247.2
20260509081206 57 280 0.0 0.0 0.00 0.00 0.00 99 4246.8
20260509080201 57 290 0.0 0.0 0.00 0.00 0.00 99 4246.6
20260509075156 56 290 0.0 0.0 0.00 0.00 0.00 99 4246.6
20260509074156 56 284 0.0 0.0 0.00 0.00 0.00 99 4247.0
20260509073155 55 255 0.0 0.0 0.00 0.00 0.00 99 4247.2
20260509072154 55 288 0.0 1.0 0.00 0.00 0.00 98 4247.0
20260509071154 56 269 0.0 0.0 0.00 0.00 0.00 98 4247.5
20260509070153 56 285 0.0 0.0 0.00 0.00 0.00 98 4247.3
20260509065152 56 258 0.0 0.0 0.00 0.00 0.00 98 4247.2
20260509064152 55 270 0.0 0.0 0.00 0.00 0.00 98 4247.5
20260509063151 55 256 0.0 1.0 0.00 0.00 0.00 98 4247.7
20260509062152 55 327 0.0 0.0 0.00 0.00 0.00 98 4247.4
20260509061146 55 288 0.0 0.0 0.00 0.00 0.00 98 4247.8
20260509060145 55 295 1.0 1.0 0.00 0.00 0.00 98 4247.7
20260509055143 55 241 1.0 1.0 0.00 0.00 0.00 98 4247.9
20260509054143 55 227 1.0 1.0 0.00 0.00 0.00 97 4248.1
20260509053138 55 247 1.0 1.0 0.00 0.00 0.00 97 4247.8
20260509052133 56 234 0.0 1.0 0.00 0.00 0.00 97 4247.8
20260509051128 55 220 1.0 1.0 0.00 0.00 0.00 97 4248.1
20260509050127 55 220 1.0 1.0 0.00 0.00 0.00 97 4247.7
20260509045127 55 241 0.0 1.0 0.00 0.00 0.00 97 4248.1
20260509044122 55 236 1.0 1.0 0.00 0.00 0.00 97 4247.9
20260509043119 56 229 1.0 1.0 0.00 0.00 0.00 96 4247.9
20260509042117 56 264 1.0 1.0 0.00 0.00 0.00 95 4248.1
20260509041112 57 247 1.0 1.0 0.00 0.00 0.00 94 4248.3
20260509040107 57 229 1.0 1.0 0.00 0.00 0.00 94 4248.6
20260509035106 57 239 1.0 2.0 0.00 0.00 0.00 93 4248.6
20260509034106 58 228 1.0 1.0 0.00 0.00 0.00 93 4248.4
20260509033106 58 237 1.0 1.0 0.00 0.00 0.00 92 4248.4
20260509032106 58 240 1.0 1.0 0.00 0.00 0.00 91 4248.6
20260509031101 58 240 0.0 1.0 0.00 0.00 0.00 91 4248.6
20260509030056 58 262 0.0 1.0 0.00 0.00 0.00 91 4248.6
20260509025053 58 303 0.0 0.0 0.00 0.00 0.00 90 4248.7
20260509024051 59 300 0.0 0.0 0.00 0.00 0.00 89 4248.8
20260509023046 59 294 0.0 1.0 0.00 0.00 0.00 88 4248.8
20260509022047 60 339 0.0 0.0 0.00 0.00 0.00 87 4248.4
20260509021046 60 339 0.0 0.0 0.00 0.00 0.00 85 4248.8
20260509020047 61 347 0.0 0.0 0.00 0.00 0.00 84 4248.5
20260509015043 61 297 0.0 0.0 0.00 0.00 0.00 83 4248.5
20260509014041 62 297 0.0 0.0 0.00 0.00 0.00 82 4248.3
20260509013040 62 294 0.0 0.0 0.00 0.00 0.00 80 4248.2
20260509012039 63 3 1.0 1.0 0.00 0.00 0.00 79 4248.4
20260509011034 63 129 0.0 0.0 0.00 0.00 0.00 78 4248.2
20260509010034 64 295 0.0 0.0 0.00 0.00 0.00 76 4248.2
20260509005032 65 246 0.0 1.0 0.00 0.00 0.00 74 4248.3
20260509004032 66 287 0.0 0.0 0.00 0.00 0.00 72 4248.2
20260509003027 66 245 1.0 2.0 0.00 0.00 0.00 71 4248.2
20260509002027 67 290 0.0 1.0 0.00 0.00 0.00 70 4248.2
20260509001026 68 279 0.0 0.0 0.00 0.00 0.00 69 4248.2
20260509000026 69 264 0.0 1.0 0.00 0.00 0.00 67 4248.1
20260508235026 69 240 1.0 2.0 0.00 0.00 0.00 66 4248.2
20260508234026 70 245 2.0 2.0 0.00 0.00 0.00 64 4248.1
20260508233023 70 271 1.0 1.0 0.00 0.00 0.00 64 4248.3
20260508232022 70 263 1.0 1.0 0.00 0.00 0.00 62 4248.2
20260508231017 70 355 0.0 1.0 0.00 0.00 0.00 62 4248.4
20260508230016 70 278 0.0 1.0 0.00 0.00 0.00 61 4248.4
20260508225016 71 355 0.0 1.0 0.00 0.00 0.00 60 4248.6
20260508224016 71 241 2.0 2.0 0.00 0.00 0.00 59 4248.4
20260508223011 72 259 2.0 2.0 0.00 0.00 0.00 60 4248.3
20260508222011 73 101 1.0 1.0 0.00 0.00 0.00 56 4248.4
20260508221009 75 211 1.0 2.0 0.00 0.00 0.00 54 4248.6
20260508220008 75 279 1.0 2.0 0.00 0.00 0.00 52 4248.6
20260508215008 75 317 1.0 1.0 0.00 0.00 0.00 53 4248.7
20260508214007 75 268 3.0 3.0 0.00 0.00 0.00 52 4248.7
20260508213006 75 63 1.0 2.0 0.00 0.00 0.00 54 4248.7
20260508212005 75 179 2.0 2.0 0.00 0.00 0.00 57 4248.7
20260508211003 77 277 2.0 3.0 0.00 0.00 0.00 50 4248.8
20260508210003 76 81 1.0 2.0 0.00 0.00 0.00 51 4248.9
20260508205002 76 277 2.0 2.0 0.00 0.00 0.00 50 4248.9
20260508204001 76 9 2.0 2.0 0.00 0.00 0.00 53 4248.9
20260508202959 75 275 2.0 2.0 0.00 0.00 0.00 49 4248.9
20260508201959 76 205 5.0 7.0 0.00 0.00 0.00 50 4249.1
20260508200958 75 7 1.0 1.0 0.00 0.00 0.00 52 4249.4
20260508195956 76 325 0.0 1.0 0.00 0.00 0.00 50 4249.5
20260508194955 75 155 3.0 5.0 0.00 0.00 0.00 54 4249.3
20260508193950 74 306 1.0 1.0 0.00 0.00 0.00 53 4249.5
20260508192949 74 265 1.0 2.0 0.00 0.00 0.00 53 4249.7
20260508191949 74 220 3.0 3.0 0.00 0.00 0.00 52 4250.0
20260508190948 72 30 2.0 2.0 0.00 0.00 0.00 56 4249.8
20260508185947 72 32 2.0 2.0 0.00 0.00 0.00 57 4250.0
20260508184942 73 278 1.0 1.0 0.00 0.00 0.00 56 4250.2
20260508183942 72 313 1.0 2.0 0.00 0.00 0.00 56 4250.5
20260508182940 70 14 2.0 2.0 0.00 0.00 0.00 60 4250.4
20260508181937 70 305 0.0 0.0 0.00 0.00 0.00 55 4250.4
20260508180932 70 39 0.0 0.0 0.00 0.00 0.00 58 4250.8
20260508175930 71 66 3.0 3.0 0.00 0.00 0.00 55 4251.0
20260508174925 72 345 2.0 2.0 0.00 0.00 0.00 53 4250.9
20260508173924 70 10 1.0 1.0 0.00 0.00 0.00 53 4251.0
20260508172923 71 77 3.0 5.0 0.00 0.00 0.00 56 4251.4
20260508171923 72 56 2.0 2.0 0.00 0.00 0.00 56 4251.7
20260508170921 71 345 1.0 2.0 0.00 0.00 0.00 55 4252.5
20260508165921 71 307 2.0 2.0 0.00 0.00 0.00 51 4252.6
20260508164920 68 45 2.0 2.0 0.00 0.00 0.00 58 4252.6
20260508163915 69 44 3.0 3.0 0.00 0.00 0.00 62 4252.7
20260508162914 68 29 4.0 5.0 0.00 0.00 0.00 59 4253.0
20260508161914 68 58 1.0 2.0 0.00 0.00 0.00 60 4253.2
20260508160914 69 83 3.0 5.0 0.00 0.00 0.00 59 4252.8